When you browse on this site, cookies collect data to enhance your experience and personalize the content and advertising you see.
Visit our Privacy Policy to learn more. By continuing to use the site, you agree to this use of cookies and data.
  • In Spain
  • List of Countries
  • For 7 days
  • Water Temperature
  • Weather Map
  • Weather Widgets
  • user-avatar
    Login

    Hourly Weather Luanda

    Today, 21 August, Wednesday

    Time Temperature Precipitation Wind Pressure Humidity
    00:00 +22°C° 0 mm 3 mps 756 mmHg 89%
    01:00 +21°C° 0 mm 2 mps 756 mmHg 88%
    02:00 +21°C° 0 mm 2 mps 756 mmHg 87%
    03:00 +21°C° 0 mm 2 mps 756 mmHg 85%
    04:00 +23°C° 0 mm 2 mps 756 mmHg 83%
    05:00 +23°C° 0 mm 2 mps 756 mmHg 82%
    06:00 +22°C° 0 mm 3 mps 756 mmHg 81%
    07:00 +22°C° 0 mm 3 mps 757 mmHg 79%
    08:00 +25°C° 0 mm 2 mps 757 mmHg 71%
    09:00 +28°C° 0 mm 2 mps 757 mmHg 62%
    10:00 +30°C° 0 mm 1 mps 757 mmHg 53%
    11:00 +31°C° 0 mm 2 mps 756 mmHg 50%
    12:00 +33°C° 0 mm 3 mps 755 mmHg 48%
    13:00 +34°C° 0 mm 5 mps 754 mmHg 45%
    14:00 +32°C° 0 mm 5 mps 753 mmHg 50%
    15:00 +30°C° 0 mm 6 mps 753 mmHg 55%
    16:00 +28°C° 0 mm 6 mps 752 mmHg 59%
    17:00 +27°C° 0 mm 6 mps 753 mmHg 66%
    18:00 +26°C° 0 mm 6 mps 753 mmHg 73%
    19:00 +23°C° 0 mm 6 mps 754 mmHg 80%
    20:00 +23°C° 0 mm 4 mps 754 mmHg 82%
    21:00 +22°C° 0 mm 3 mps 755 mmHg 84%
    22:00 +23°C° 0 mm 2 mps 756 mmHg 86%
    23:00 +23°C° 0 mm 2 mps 756 mmHg 87%

    Tomorrow, 22 August, Thursday

    Time Temperature Precipitation Wind Pressure Humidity
    00:00 +23°C° 0 mm 2 mps 756 mmHg 88%
    01:00 +21°C° 0 mm 2 mps 756 mmHg 89%
    02:00 +22°C° 0 mm 1 mps 756 mmHg 88%
    03:00 +23°C° 0 mm 1 mps 756 mmHg 86%
    04:00 +23°C° 0 mm 1 mps 755 mmHg 84%
    05:00 +23°C° 0 mm 1 mps 756 mmHg 83%
    06:00 +23°C° 0 mm 1 mps 756 mmHg 82%
    07:00 +23°C° 0 mm 2 mps 756 mmHg 81%
    08:00 +25°C° 0 mm 1 mps 756 mmHg 72%
    09:00 +26°C° 0 mm 1 mps 756 mmHg 64%
    10:00 +28°C° 0 mm 1 mps 756 mmHg 55%
    11:00 +29°C° 0 mm 2 mps 755 mmHg 51%
    12:00 +31°C° 0 mm 3 mps 754 mmHg 48%
    13:00 +33°C° 0 mm 4 mps 754 mmHg 44%
    14:00 +32°C° 0 mm 5 mps 753 mmHg 49%
    15:00 +29°C° 0 mm 6 mps 753 mmHg 54%
    16:00 +28°C° 0 mm 6 mps 752 mmHg 58%
    17:00 +27°C° 0 mm 6 mps 753 mmHg 65%
    18:00 +25°C° 0 mm 5 mps 753 mmHg 73%
    19:00 +23°C° 0 mm 5 mps 754 mmHg 80%
    20:00 +22°C° 0 mm 4 mps 755 mmHg 82%
    21:00 +22°C° 0 mm 3 mps 755 mmHg 85%
    22:00 +21°C° 0 mm 2 mps 756 mmHg 88%
    23:00 +23°C° 0 mm 2 mps 756 mmHg 85%

    Day after tomorrow, 23 August, Friday

    Time Temperature Precipitation Wind Pressure Humidity
    00:00 +23°C° 0 mm 2 mps 756 mmHg 81%
    01:00 +23°C° 0 mm 2 mps 756 mmHg 78%
    02:00 +23°C° 0 mm 2 mps 756 mmHg 76%
    03:00 +24°C° 0 mm 2 mps 756 mmHg 75%
    04:00 +24°C° 0 mm 2 mps 756 mmHg 73%
    05:00 +23°C° 0 mm 2 mps 756 mmHg 73%
    06:00 +23°C° 0 mm 1 mps 756 mmHg 74%
    07:00 +23°C° 0 mm 1 mps 757 mmHg 74%
    08:00 +25°C° 0 mm 1 mps 757 mmHg 66%
    09:00 +27°C° 0 mm 1 mps 757 mmHg 57%
    10:00 +29°C° 0 mm 1 mps 757 mmHg 49%
    11:00 +29°C° 0 mm 2 mps 756 mmHg 48%
    12:00 +30°C° 0 mm 4 mps 755 mmHg 48%
    13:00 +30°C° 0 mm 5 mps 755 mmHg 47%
    14:00 +29°C° 0 mm 5 mps 754 mmHg 51%
    15:00 +28°C° 0 mm 6 mps 754 mmHg 55%
    16:00 +27°C° 0 mm 6 mps 753 mmHg 59%
    17:00 +26°C° 0 mm 6 mps 754 mmHg 66%
    18:00 +25°C° 0 mm 5 mps 754 mmHg 74%
    19:00 +22°C° 0 mm 5 mps 755 mmHg 81%
    20:00 +22°C° 0 mm 4 mps 756 mmHg 81%
    21:00 +22°C° 0 mm 3 mps 756 mmHg 80%
    22:00 +23°C° 0 mm 2 mps 757 mmHg 80%
    23:00 +24°C° 0 mm 2 mps 757 mmHg 78%

    24 August, Saturday

    Time Temperature Precipitation Wind Pressure Humidity
    00:00 +24°C° 0 mm 2 mps 757 mmHg 75%
    01:00 +24°C° 0 mm 2 mps 757 mmHg 73%
    02:00 +24°C° 0 mm 2 mps 757 mmHg 72%
    03:00 +24°C° 0 mm 2 mps 757 mmHg 72%
    04:00 +24°C° 0 mm 2 mps 757 mmHg 71%
    05:00 +24°C° 0 mm 2 mps 757 mmHg 70%
    06:00 +24°C° 0 mm 2 mps 757 mmHg 70%
    07:00 +24°C° 0 mm 2 mps 757 mmHg 69%
    08:00 +25°C° 0 mm 2 mps 758 mmHg 64%
    09:00 +26°C° 0 mm 1 mps 758 mmHg 59%
    10:00 +27°C° 0 mm 1 mps 758 mmHg 54%
    11:00 +28°C° 0 mm 2 mps 757 mmHg 51%
    12:00 +29°C° 0 mm 3 mps 756 mmHg 48%
    13:00 +30°C° 0 mm 4 mps 755 mmHg 45%
    14:00 +29°C° 0 mm 5 mps 754 mmHg 49%
    15:00 +28°C° 0 mm 5 mps 754 mmHg 53%
    16:00 +27°C° 0 mm 6 mps 753 mmHg 57%
    17:00 +26°C° 0 mm 6 mps 754 mmHg 63%
    18:00 +24°C° 0 mm 6 mps 754 mmHg 69%
    19:00 +22°C° 0 mm 6 mps 755 mmHg 75%
    20:00 +22°C° 0 mm 4 mps 755 mmHg 78%
    21:00 +22°C° 0 mm 3 mps 756 mmHg 81%
    22:00 +22°C° 0 mm 1 mps 756 mmHg 83%
    23:00 +22°C° 0 mm 1 mps 756 mmHg 85%

    25 August, Sunday

    Time Temperature Precipitation Wind Pressure Humidity
    00:00 +19°C° 0 mm 0 mps 756 mmHg 86%
    01:00 +19°C° 0 mm 0 mps 757 mmHg 88%
    02:00 +19°C° 0 mm 0 mps 756 mmHg 89%
    03:00 +21°C° 0 mm 1 mps 756 mmHg 90%
    04:00 +20°C° 0 mm 1 mps 756 mmHg 91%
    05:00 +20°C° 0 mm 2 mps 756 mmHg 88%
    06:00 +20°C° 0 mm 2 mps 756 mmHg 86%
    07:00 +20°C° 0 mm 3 mps 757 mmHg 83%
    08:00 +23°C° 0 mm 2 mps 757 mmHg 73%
    09:00 +26°C° 0 mm 1 mps 757 mmHg 63%
    10:00 +28°C° 0 mm 1 mps 757 mmHg 52%
    11:00 +28°C° 0 mm 2 mps 756 mmHg 50%
    12:00 +29°C° 0 mm 3 mps 755 mmHg 47%
    13:00 +30°C° 0 mm 4 mps 754 mmHg 45%
    14:00 +29°C° 0 mm 5 mps 754 mmHg 49%
    15:00 +28°C° 0 mm 5 mps 753 mmHg 54%
    16:00 +27°C° 0 mm 6 mps 753 mmHg 59%
    17:00 +24°C° 0 mm 6 mps 753 mmHg 66%
    18:00 +23°C° 0 mm 5 mps 754 mmHg 72%
    19:00 +22°C° 0 mm 5 mps 754 mmHg 79%
    20:00 +21°C° 0 mm 4 mps 755 mmHg 82%
    21:00 +21°C° 0 mm 3 mps 756 mmHg 85%
    22:00 +21°C° 0 mm 2 mps 756 mmHg 88%
    23:00 +20°C° 0 mm 2 mps 756 mmHg 88%

    26 August, Monday

    Time Temperature Precipitation Wind Pressure Humidity
    00:00 +20°C° 0 mm 2 mps 757 mmHg 88%
    01:00 +21°C° 0 mm 1 mps 757 mmHg 88%
    02:00 +20°C° 0 mm 2 mps 757 mmHg 88%
    03:00 +20°C° 0 mm 2 mps 756 mmHg 87%
    04:00 +20°C° 0 mm 2 mps 756 mmHg 87%
    05:00 +20°C° 0 mm 2 mps 757 mmHg 84%
    06:00 +21°C° 0 mm 2 mps 757 mmHg 82%
    07:00 +21°C° 0 mm 2 mps 757 mmHg 79%
    08:00 +23°C° 0 mm 2 mps 757 mmHg 72%
    09:00 +25°C° 0 mm 2 mps 757 mmHg 65%
    10:00 +26°C° 0 mm 2 mps 758 mmHg 57%
    11:00 +27°C° 0 mm 2 mps 757 mmHg 52%
    12:00 +29°C° 0 mm 3 mps 756 mmHg 48%
    13:00 +30°C° 0 mm 3 mps 756 mmHg 43%
    14:00 +29°C° 0 mm 4 mps 755 mmHg 45%
    15:00 +29°C° 0 mm 4 mps 755 mmHg 48%
    16:00 +28°C° 0 mm 5 mps 754 mmHg 51%
    17:00 +26°C° 0 mm 4 mps 755 mmHg 60%
    18:00 +23°C° 0 mm 4 mps 755 mmHg 70%
    19:00 +22°C° 0 mm 4 mps 756 mmHg 79%
    20:00 +22°C° 0 mm 4 mps 756 mmHg 81%
    21:00 +21°C° 0 mm 3 mps 756 mmHg 83%
    22:00 +21°C° 0 mm 3 mps 757 mmHg 85%
    23:00 +21°C° 0 mm 3 mps 757 mmHg 87%
    Show more